Weather History for KIML - February, 2012

Change the Weather History Date:

Monday, February 20, 2012

  Actual Average Record
Temperature  
Mean Temperature 33 °F 33 °F  
Max Temperature 40 °F 46 °F 72 °F (1972)
Min Temperature 26 °F 20 °F -12 °F (1918)
Degree Days  
Heating Degree Days 32 32  
Month to date heating degree days 738 688  
Cooling Degree Days 0 0  
Month to date cooling degree days 0 0  
Year to date cooling degree days 0 0  
Moisture  
Dew Point 29 °F    
Average Humidity 77    
Maximum Humidity 100    
Minimum Humidity 54    
Precipitation  
Precipitation 0.01 in 0.02 in 0.30 in (1994)
Sea Level Pressure  
Sea Level Pressure 29.65 in    
Wind  
Wind Speed 20 mph (NW)    
Max Wind Speed 38 mph    
Max Gust Speed 48 mph    
Visibility 4 miles    
Events Fog , Rain , Snow    
T = Trace of Precipitation, MM = Missing Value Source: NWS Daily Summary

Daily Weather History Graph

Daily Weather History Graph

Search for Another Location

Airport or City:

Trip Planner

Search our weather history database for the weather conditions in past years. The results will help you decide how hot, cold, wet, or windy it might be!

Date:

Astronomy

Feb. 20, 2012 Rise Set
Actual Time 6:34 AM MST 5:27 PM MST
Civil Twilight 6:06 AM MST 5:54 PM MST
Nautical Twilight 5:34 AM MST 6:26 PM MST
Astronomical Twilight 5:02 AM MST 6:58 PM MST
Moon 5:32 AM MST (2/20) 4:33 PM MST (2/20)
Length of Visible Light 11h 48m
Length of Day
10h 53m
Waning Crescent, 1% of the Moon is Illuminated
Feb 20
Waning Crescent
Feb 21
New
Feb 29
First Quarter
Mar 8
Full
Mar 14
Last Quarter

Hourly Weather History & Observations

Time (MST) Temp. Windchill Dew Point Humidity Pressure Visibility Wind Dir Wind Speed Gust Speed Precip Events Conditions
12:53 AM 39.9 °F 29.7 °F 36.0 °F 86% 29.54 in 9.0 mi SSE 23.0 mph - N/A   Scattered Clouds
1:53 AM 37.9 °F 30.5 °F 36.0 °F 93% 29.54 in 7.0 mi SSE 11.5 mph - N/A   Scattered Clouds
2:53 AM 36.0 °F 29.0 °F 34.0 °F 93% 29.52 in 7.0 mi South 9.2 mph - N/A   Mostly Cloudy
3:36 AM 35.6 °F 28.0 °F 32.0 °F 87% 29.47 in 8.0 mi SSW 10.4 mph - N/A   Overcast
3:53 AM 34.0 °F 26.6 °F 32.0 °F 92% 29.50 in 8.0 mi SSW 9.2 mph - N/A   Overcast
4:06 AM 33.8 °F 25.8 °F 32.0 °F 93% 29.46 in 7.0 mi SW 10.4 mph - N/A   Overcast
4:28 AM 33.8 °F 27.0 °F 32.0 °F 93% 29.46 in 7.0 mi SSW 8.1 mph - N/A   Mostly Cloudy
4:53 AM 35.1 °F 28.6 °F 33.1 °F 92% 29.51 in 6.0 mi West 8.1 mph - N/A   Overcast
5:53 AM 36.0 °F 27.1 °F 35.1 °F 97% 29.51 in 4.0 mi WNW 13.8 mph 20.7 mph N/A   Overcast
6:53 AM 36.0 °F 25.3 °F 35.1 °F 97% 29.51 in 3.0 mi NW 19.6 mph 24.2 mph N/A   Overcast
7:53 AM 34.0 °F 21.8 °F 32.0 °F 92% 29.57 in 5.0 mi NNW 23.0 mph 35.7 mph N/A   Overcast
8:09 AM 33.8 °F 21.0 °F 30.2 °F 87% 29.54 in 2.0 mi NNW 25.3 mph 32.2 mph N/A   Overcast
8:19 AM 33.8 °F 21.0 °F 30.2 °F 87% 29.54 in 1.8 mi NNW 25.3 mph 35.7 mph 0.00 in Rain Light Rain
8:30 AM 33.8 °F 20.1 °F 30.2 °F 87% 29.54 in 1.2 mi NNW 29.9 mph 35.7 mph 0.00 in Rain Light Freezing Rain
8:39 AM 32.0 °F 18.6 °F 30.2 °F 93% 29.55 in 1.2 mi NNW 25.3 mph 35.7 mph 0.00 in Snow Light Snow
8:53 AM 32.0 °F 18.4 °F 30.0 °F 92% 29.60 in 1.8 mi NNW 26.5 mph 40.3 mph 0.00 in Rain Light Freezing Rain
9:15 AM 32.0 °F 17.2 °F 30.2 °F 93% 29.56 in 2.0 mi NNW 32.2 mph 43.7 mph 0.00 in Rain Light Freezing Rain
9:33 AM 32.0 °F 17.9 °F 30.2 °F 93% 29.57 in 3.0 mi NNW 28.8 mph 40.3 mph 0.00 in Rain Light Freezing Rain
9:40 AM 32.0 °F 17.4 °F 30.2 °F 93% 29.57 in 3.0 mi NNW 31.1 mph 43.7 mph 0.00 in Rain Light Freezing Rain
9:53 AM 32.0 °F 17.6 °F 30.0 °F 92% 29.62 in 2.0 mi NNW 29.9 mph 40.3 mph 0.00 in Snow Light Snow
10:01 AM 32.0 °F 17.2 °F 30.2 °F 93% 29.58 in 1.2 mi NNW 32.2 mph 36.8 mph 0.00 in Snow Light Snow
10:17 AM 32.0 °F 17.0 °F 30.2 °F 93% 29.59 in 1.2 mi NNW 33.4 mph 43.7 mph 0.00 in Snow Light Snow
10:24 AM 32.0 °F 17.4 °F 30.2 °F 93% 29.59 in 1.2 mi NNW 31.1 mph 44.9 mph 0.00 in Snow Light Snow
10:53 AM 32.0 °F 17.4 °F 30.0 °F 92% 29.65 in 1.0 mi NNW 31.1 mph 44.9 mph 0.00 in Snow Light Snow
11:00 AM 32.0 °F 17.4 °F 30.2 °F 93% 29.61 in 0.8 mi NW 31.1 mph 41.4 mph 0.00 in Snow Light Snow
11:14 AM 32.0 °F 17.6 °F 30.2 °F 93% 29.62 in 0.5 mi NNW 29.9 mph 42.6 mph 0.00 in Fog , Snow Snow
11:23 AM 32.0 °F 17.2 °F 30.2 °F 93% 29.62 in 0.5 mi NNW 32.2 mph 43.7 mph 0.00 in Fog , Snow Snow
11:53 AM 30.2 °F 14.3 °F 28.4 °F 93% 29.64 in 0.2 mi NNW 34.5 mph 44.9 mph N/A Fog , Snow Snow
12:07 PM 30.2 °F 14.9 °F 28.4 °F 93% 29.64 in 0.5 mi NW 31.1 mph 47.2 mph 0.00 in Fog , Snow Light Snow
12:25 PM 32.0 °F 17.9 °F 28.4 °F 87% 29.65 in 0.5 mi NW 28.8 mph 48.3 mph 0.00 in Fog , Snow Snow
12:33 PM 32.0 °F 17.6 °F 30.2 °F 93% 29.65 in 0.5 mi NW 29.9 mph 40.3 mph 0.00 in Fog , Snow Snow
12:37 PM 32.0 °F 17.2 °F 30.2 °F 93% 29.65 in 0.2 mi NW 32.2 mph 42.6 mph 0.00 in Fog , Snow Snow
12:53 PM 32.0 °F 17.9 °F 30.0 °F 92% 29.71 in 0.2 mi NW 28.8 mph 42.6 mph 0.00 in Fog , Snow Snow
1:14 PM 32.0 °F 18.1 °F 30.2 °F 93% 29.67 in 0.5 mi NW 27.6 mph 42.6 mph 0.00 in Fog , Snow Snow
1:50 PM 32.0 °F 18.1 °F 28.4 °F 87% 29.69 in 0.8 mi NW 27.6 mph 38.0 mph 0.01 in Snow Light Snow
1:53 PM 32.0 °F 18.1 °F 30.0 °F 92% 29.75 in 0.8 mi NW 27.6 mph 38.0 mph 0.01 in Snow Light Snow
2:12 PM 33.8 °F 20.5 °F 28.4 °F 81% 29.70 in 1.5 mi NW 27.6 mph 39.1 mph 0.00 in Snow Light Snow
2:17 PM 33.8 °F 20.3 °F 26.6 °F 75% 29.69 in 3.0 mi NNW 28.8 mph 40.3 mph 0.00 in Snow Light Snow
2:32 PM 33.8 °F 21.9 °F 26.6 °F 75% 29.70 in 10.0 mi NNW 21.9 mph 35.7 mph 0.00 in   Overcast
2:53 PM 35.1 °F 23.8 °F 26.1 °F 70% 29.76 in 10.0 mi NW 20.7 mph 33.4 mph 0.00 in   Overcast
3:53 PM 37.4 °F 26.4 °F 24.8 °F 60% 29.73 in 10.0 mi NW 23.0 mph 32.2 mph N/A   Clear
4:53 PM 37.0 °F 26.4 °F 23.0 °F 57% 29.81 in 10.0 mi NW 20.7 mph 27.6 mph N/A   Clear
5:53 PM 33.1 °F 22.6 °F 23.0 °F 66% 29.85 in 10.0 mi NW 16.1 mph - N/A   Clear
6:53 PM 30.9 °F 20.7 °F 21.0 °F 67% 29.89 in 10.0 mi WNW 13.8 mph 21.9 mph N/A   Clear
7:53 PM 30.0 °F 19.5 °F 19.9 °F 66% 29.92 in 10.0 mi WNW 13.8 mph - N/A   Clear
8:53 PM 30.0 °F 19.1 °F 19.0 °F 64% 29.93 in 10.0 mi NW 15.0 mph 24.2 mph N/A   Clear
9:53 PM 30.0 °F 19.1 °F 18.0 °F 61% 29.94 in 10.0 mi NW 15.0 mph - N/A   Clear
10:53 PM 27.0 °F 15.6 °F 18.0 °F 69% 29.96 in 10.0 mi West 13.8 mph - N/A   Clear
11:53 PM 28.9 °F 19.8 °F 18.0 °F 64% 29.96 in 10.0 mi WNW 10.4 mph - N/A   Clear